OPS 4682 DEB, 18783

Orbit data source: Space-Track

OPS 4682 DEB, 18783 is space debris in LEO originally from a launch on Sat, 03 Apr 1965 UTC launched from the Air Force Western Test Range (AFWTR). Debris objects in space refer to the collection of defunct objects orbiting the Earth. Examples of debris include non-operational satellites, rocket bodies, and fragments generated from explosions, collisions, or faulty payload assembly.

Loading next visibility...
Identifier
18783, 1965-027AK
Orbit
LEO
Country
Flag of USUS
Related business
Manufacturer
Unknown
Mission
Spacecraft
Bus & Motor
Unknown
Mass
Unknown
Launch date (UTC)
1965-04-03 (61 years ago)
Launch vehicle
Unknown
Launch site
Air Force Western Test Range (AFWTR)
Object type
Payload
Rocket body
Debris
Shape & HBR
Unknown shape, 0.1 m
Radar Cross Section
Small (<0.1 m²)

Expand to show TLE details & history
Last TLE update: 2 days ago

TLE from 2 days ago
0 OPS 4682 DEB
1 18783U 65027AK  26043.39490984 -.00000202  00000-0 -68901-3 0  9991
2 18783  90.2624  23.2447 0027034 171.4802 342.5412 13.00750166564255
Epoch: 2026-02-12T09:28Z
TLE epoch observation values (Epoch: 2026-02-12T09:28:40.210Z)
Latitude
26.10179°
Longitude
-81.24222°
Altitude
1,242.626 km
Speed
7.245 km/s
True Right ascension
13h 33m 29s
True Declination
25° 58' 29"
Sunlit
Object was in full shadow at epoch
Visualization orbit readout
Latitude
Unknown
Longitude
Unknown
Altitude
Unknown
Speed
Unknown
Apparent Right ascension
Unknown
Apparent Declination
Unknown
Sunlit
N/A
Visualization observer readout
Local Sidereal Time
07:31:05
Azimuth
Unknown
Elevation
Unknown
Doppler factor
Unknown
Orbital elements
Apogee altitude
1,276.914 km
Perigee altitude
1,235.636 km
Semi-major axis
7,634.412 km
Eccentricity
0.0027
Inclination
90.2624°
RAAN
23.2447°
Arg. of periapsis
171.4802°
True anomaly
342.44796°
Mean anomaly
342.5412°
Eccentric anomaly
342.49461°
Mean motion
3.25372 °/min
Orbital period
110.64 mins
BSTAR
-0.00068901
Loading maneuver chart data...
Computing Atmospheric mass density...
Loading historical data...
Loading historical data...
Loading historical data...
Loading historical data...
Loading historical data...
Loading historical data...
Loading historical data...

Documentation

Showing up to 5 results
|